"Pseudo-MPEC" for CE9WEQ2

Created 2026 Mar 11 11:35:18 UT using Find_Orb

Click here for an explanation of pseudo-MPECs

 
 Astrometry: 
     CE9WEQ2 0C2026 02 13.40264809 59 12.217+04 31 16.96   ~39DZ 21.10wXNEOCPF51
     CE9WEQ2 0C2026 02 13.41612509 59 11.315+04 31 17.37   ~39DZ 21.05wXNEOCPF51
     CE9WEQ2 0C2026 02 13.42984509 59 10.379+04 31 17.99   ~39DZ 21.11wXNEOCPF51
     CE9WEQ2 0C2026 02 13.44345109 59 09.466+04 31 18.37   ~39DZ 20.92wXNEOCPF51
     CE9WEQ2 1C2026 02 23.23233309 48 11.869+04 45 21.85   ~39DZ 21.00GVNEOCPG96
     CE9WEQ2 1C2026 02 23.23795909 48 11.412+04 45 22.68   ~39DZ 21.44GVNEOCPG96
     CE9WEQ2 1C2026 02 23.24358609 48 11.041+04 45 23.72   ~39DZ 20.76GVNEOCPG96
     CE9WEQ2 1C2026 02 23.24921209 48 10.602+04 45 23.90   ~39DZ 20.87GVNEOCPG96
     CE9WEQ2*1C2026 03 08.19783609 33 55.228+05 21 24.80   ~385K 20.76GVNEOCPG96
     CE9WEQ2 1C2026 03 08.20339009 33 54.842+05 21 25.92   ~385K 21.07GVNEOCPG96
     CE9WEQ2 1C2026 03 08.20895609 33 54.500+05 21 26.68   ~385K 21.12GVNEOCPG96
     CE9WEQ2  C2026 03 08.36574909 33 44.574+05 21 55.67   ~389K 20.7 GWNEOCPH01
     CE9WEQ2  C2026 03 08.37104609 33 44.264+05 21 56.82   ~389K 20.9 GWNEOCPH01
     CE9WEQ2  C2026 03 08.37524809 33 44.010+05 21 57.47   ~389K 20.7 GWNEOCPH01
     CE9WEQ2  C2026 03 08.37907809 33 43.765+05 21 58.29   ~389K 20.5 GWNEOCPH01
     CE9WEQ2 1C2026 03 08.38743409 33 43.333+05 21 59.76   ~38A5 20.91GVNEOCPI52
     CE9WEQ2 1C2026 03 08.39659609 33 42.714+05 22 01.78   ~38A5 20.93GVNEOCPI52
     CE9WEQ2 1C2026 03 08.40204909 33 42.440+05 22 03.40   ~38A5 21.24GVNEOCPI52
     CE9WEQ2 1C2026 03 08.40780609 33 42.059+05 22 03.86   ~38A5 20.98GVNEOCPI52
     CE9WEQ2 |C2026 03 09.04684009 33 06.340+05 24 19.00   ~3925 21.2 GVNEOCP807
     CE9WEQ2 |C2026 03 09.05284009 33 05.950+05 24 20.30   ~3925 21.3 GVNEOCP807
     CE9WEQ2 |C2026 03 09.05883009 33 05.570+05 24 21.30   ~3925 21.5 GVNEOCP807
     CE9WEQ2 1C2026 03 09.23026709 32 55.579+05 24 39.38   ~3965 21.14GVNEOCPI52
     CE9WEQ2 1C2026 03 09.23471009 32 55.266+05 24 40.43   ~3965 20.62GVNEOCPI52
     CE9WEQ2 1C2026 03 09.23916909 32 55.028+05 24 41.22   ~3965 20.94GVNEOCPI52
     CE9WEQ2 1C2026 03 09.24368209 32 54.733+05 24 41.90   ~3965 21.18GVNEOCPI52
     CE9WEQ2 KC2026 03 10.13808209 32 05.04 +05 27 29.7    ~3A3o 21.2 GVNEOCPH21
     CE9WEQ2 KC2026 03 10.14507209 32 04.65 +05 27 30.8    ~3A3o 20.8 GVNEOCPH21

Station data:
(807) Cerro Tololo Observatory, La Serena  (S30.169133 W70.805900)  Chile.
   Observer R. Holmes. 0.61-m f/6.5 astrograph + CCD.
(F51) Pan-STARRS 1, Haleakala  (N20.707234 W156.255910)  US/Hawaii.
   Observers J. Herman, T. Lowe, P. Minguez, A. Schultz, I. Smith. Measurers
   K. Chambers, T. de Boer, J. Fairlamb, H. Gao, M. Huber, C.-C. Lin, E.
   Magnier, Y. Ramanjooloo, R. Wainscoat, R. Weryk. 1.8-m Ritchey-Chrétien +
   CCD.
(G96) Mt. Lemmon Survey  (N32.442729 W110.788720)  US/Arizona.  Observer E.
   J. Christensen. Measurers T. Beuden, V. F. Carvajal, D. Fay, J. B.
   Fazekas, D. C. Fuls, A. R. Gibbs, A. D. Grauer, H. Gröller, J. K. Hogan,
   R. A. Kowalski, S. M. Larson, G. J. Leonard, D. Rankin, R. L. Seaman, F.
   C. Shelly, K. W. Wierzchoś. 1.5-m reflector + 10K CCD.
(H01) Magdalena Ridge Observatory, Socorro  (N33.984833 W107.189333)  US/New
   Mexico.  Observers W. H. Ryan, E. V. Ryan. Measurer W. H. Ryan. 2.4-m
   f/8.9 reflector + CCD.
(H21) Astronomical Research Observatory, Westfield  (N39.483054 W87.968270)
   US/Illinois.  Observer R. Holmes. Measurers S. Foglia, L. Buzzi, T.
   Linder, R. Holmes. 0.40-m f/5.32 astrograph + CCD.
(I52) Steward Observatory, Mt. Lemmon Station  (N32.442570 W110.788920)
   US/Arizona. Measurers T. Beuden, V. F. Carvajal, D. Fay, J. B. Fazekas, D.
   C. Fuls, A. R. Gibbs, A. D. Grauer, H. Gröller, J. K. Hogan, R. A.
   Kowalski, S. M. Larson, G. J. Leonard, D. Rankin, R. L. Seaman, F. C.
   Shelly, K. W. Wierzchoś. 1.0-m prime focus + CCD.

Orbital elements:  CE9WEQ2
   Perihelion 2026 Jun 8.502741 +/- 0.0451 TT = 12:03:56.7 (JD 2461200.002741)
Epoch 2026 Mar 10.0 TT = JDT 2461109.5   Earth MOID: 0.3327   Ma: 0.0204
M 334.312536096 +/- 0.0050          (J2000 ecliptic)             AutoNEOCP
n   0.283830785 +/- 0.000151        Peri.  310.458395 +/- 0.013
a   2.293135495 +/- 0.000812        Node   270.134394 +/- 0.022
e   0.41737218 +/- 0.000143         Incl.    3.669758 +/- 0.0021
P   3.47252                H 20.40  G  0.15   U  6.8
q 1.336044519 +/- 0.000207    Q 3.250226472 +/- 0.00146
From 28 observations 2026 Feb. 13-Mar. 10; mean residual 0".25
Residuals in arcseconds: 
260213 F51  .04+  .04+    260308 G96  .09+  .17-    260309 807  .33-  .02-    
260213 F51  .10+  .05-    260308 H01  .27-  .05-    260309 807  .50-  .17-    
260213 F51  .09-  .07+    260308 H01  .03-  .13+    260309 I52  .16+  .11-    
260213 F51  .03-  .04-    260308 H01  .03+  .01+    260309 I52  .43-  .10+    
260223 G96  .12+  .15-    260308 H01  .13-  .13+    260309 I52  .12+  .04+    
260223 G96  .48-  .07-    260308 I52  .77+  .31-    260309 I52  .13-  .13-    
260223 G96  .22+  .23+    260308 I52  .10-  .04+    260310 H21  .23-  .13+    
260223 G96  .10-  .34-    260308 I52  .77+  .66+    260310 H21  .14+  .10-    
260308 G96  .45+  .06+    260308 I52  .32+  .07+    
260308 G96  .07-  .12+    260309 807  .01-  .16-    

Ephemerides (geocentric):
Date (UTC) HH   RA             Dec           delta  r     elong  mag " sig PA
---- --------  ------------   ------------  ------ ------ -----  --- --------
2026 03 11 12  09 30 52.051   +05 31 54.53  .62397 1.5700 151.4 21.3 .186  59
2026 03 11 13  09 30 49.885   +05 32 02.38  .62393 1.5698 151.4 21.3 .190  59
2026 03 11 14  09 30 47.722   +05 32 10.23  .62388 1.5697 151.3 21.3 .193  59
2026 03 11 15  09 30 45.564   +05 32 18.07  .62384 1.5695 151.3 21.3 .197  59
2026 03 11 16  09 30 43.408   +05 32 25.91  .62380 1.5693 151.2 21.3 .200  59
2026 03 11 17  09 30 41.257   +05 32 33.75  .62376 1.5691 151.2 21.3 .203  60
2026 03 11 18  09 30 39.110   +05 32 41.59  .62372 1.5689 151.1 21.3 .207  60
2026 03 11 19  09 30 36.966   +05 32 49.43  .62368 1.5687 151.1 21.3 .210  60
2026 03 11 20  09 30 34.826   +05 32 57.26  .62364 1.5685 151.0 21.3 .214  60
2026 03 11 21  09 30 32.690   +05 33 05.09  .62360 1.5683 151.0 21.3 .217  60
2026 03 11 22  09 30 30.558   +05 33 12.92  .62356 1.5681 151.0 21.3 .221  60
2026 03 11 23  09 30 28.429   +05 33 20.75  .62352 1.5680 150.9 21.3 .225  60
2026 03 12 00  09 30 26.305   +05 33 28.58  .62348 1.5678 150.9 21.3 .228  61
2026 03 12 01  09 30 24.184   +05 33 36.40  .62344 1.5676 150.8 21.3 .232  61
2026 03 12 02  09 30 22.068   +05 33 44.23  .62341 1.5674 150.8 21.3 .235  61
2026 03 12 03  09 30 19.955   +05 33 52.05  .62337 1.5672 150.7 21.3 .239  61
2026 03 12 04  09 30 17.846   +05 33 59.87  .62333 1.5670 150.7 21.3 .243  61
2026 03 12 05  09 30 15.740   +05 34 07.68  .62329 1.5668 150.6 21.3 .246  61
2026 03 12 06  09 30 13.639   +05 34 15.50  .62325 1.5666 150.6 21.3 .250  61
2026 03 12 07  09 30 11.542   +05 34 23.31  .62322 1.5664 150.5 21.3 .254  62
2026 03 12 08  09 30 09.448   +05 34 31.12  .62318 1.5663 150.5 21.3 .258  62
2026 03 12 09  09 30 07.359   +05 34 38.92  .62314 1.5661 150.4 21.3 .261  62
2026 03 12 10  09 30 05.273   +05 34 46.73  .62311 1.5659 150.4 21.3 .265  62
2026 03 12 11  09 30 03.192   +05 34 54.53  .62307 1.5657 150.3 21.3 .269  62
2026 03 12 12  09 30 01.114   +05 35 02.33  .62304 1.5655 150.3 21.3 .273  62
2026 03 12 13  09 29 59.041   +05 35 10.13  .62300 1.5653 150.2 21.3 .277  62
2026 03 12 14  09 29 56.971   +05 35 17.92  .62296 1.5651 150.2 21.3 .280  62
2026 03 12 15  09 29 54.905   +05 35 25.71  .62293 1.5649 150.1 21.3 .284  63
2026 03 12 16  09 29 52.843   +05 35 33.50  .62290 1.5648 150.1 21.3 .288  63
2026 03 12 17  09 29 50.786   +05 35 41.29  .62286 1.5646 150.0 21.3 .292  63
2026 03 12 18  09 29 48.732   +05 35 49.07  .62283 1.5644 150.0 21.3 .296  63
2026 03 12 19  09 29 46.682   +05 35 56.85  .62279 1.5642 149.9 21.3 .300  63
2026 03 12 20  09 29 44.636   +05 36 04.63  .62276 1.5640 149.9 21.3 .304  63
2026 03 12 21  09 29 42.595   +05 36 12.40  .62273 1.5638 149.8 21.3 .308  63
2026 03 12 22  09 29 40.557   +05 36 20.17  .62269 1.5636 149.8 21.3 .312  63
2026 03 12 23  09 29 38.523   +05 36 27.94  .62266 1.5634 149.7 21.3 .316  64
2026 03 13 00  09 29 36.494   +05 36 35.71  .62263 1.5633 149.7 21.3 .320  64
2026 03 13 01  09 29 34.468   +05 36 43.47  .62260 1.5631 149.6 21.3 .324  64
2026 03 13 02  09 29 32.447   +05 36 51.23  .62256 1.5629 149.6 21.3 .329  64
2026 03 13 03  09 29 30.430   +05 36 58.99  .62253 1.5627 149.5 21.3 .333  64
2026 03 13 04  09 29 28.416   +05 37 06.74  .62250 1.5625 149.5 21.3 .337  64
2026 03 13 05  09 29 26.407   +05 37 14.49  .62247 1.5623 149.5 21.3 .341  64
2026 03 13 06  09 29 24.402   +05 37 22.24  .62244 1.5621 149.4 21.3 .345  64
2026 03 13 07  09 29 22.401   +05 37 29.98  .62241 1.5619 149.4 21.3 .349  64
2026 03 13 08  09 29 20.404   +05 37 37.72  .62238 1.5618 149.3 21.3 .354  64
2026 03 13 09  09 29 18.411   +05 37 45.46  .62235 1.5616 149.3 21.3 .358  65
2026 03 13 10  09 29 16.423   +05 37 53.19  .62232 1.5614 149.2 21.3 .362  65
2026 03 13 11  09 29 14.438   +05 38 00.92  .62229 1.5612 149.2 21.3 .367  65